Location: Eitze
(52.9840°N, 9.6894°E)
Time: 22:07:33
(UTC+00:00)

Cosmos 1975 - Pass Details

Date: 19 May 2025
Orbit: 487 x 506 km, 82.5° (Epoch: 15 June)

Event Time Altitude Azimuth Distance (km) Brightness Sun altitude
Rises 22:43:38 0° 343° (NNW) 2,577 7.9 -16.7°
Reaches altitude 10° 22:45:51 10° 335° (NNW) 1,689 6.5 -16.7°
Maximum altitude 22:49:16 37° 267° (W) 776 3.6 -16.8°
Enters shadow 22:50:36 27° 222° (SW) 971 3.7 -16.8°
